Wind_Speed
6 5 4 5 7 8 7 6 6 5 8 9 6 5 4 4 2 3 4 4 2 2 3 3 3 8 10 9 16 20 13 11 17 19 19 18 17 19 18 19 19 19 19 17 16 16 17 19 20 20 20 20 20 20 21 22 22 22 22 23 23 22 23 24 25 25 25 25 25 25 25 24 24 25 25 25 24 23 22 22 24 26 28 28 27 26
5 5 6 6 7 7 6 7 8 7 8 6 6 5 2 2 2 2 2 3 3 1 2 3 4 9 10 9 15 18 10 11 17 17 19 19 18 20 20 21 22 21 21 19 18 18 18 20 21 21 22 22 23 22 23 23 22 22 22 23 22 22 22 23 23 23 24 23 23 23 23 23 23 24 24 25 24 23 22 21 21 23 25 26 26 25
3 4 7 6 8 9 6 6 9 8 7 6 4 5 2 2 2 2 2 3 4 1 3 3 4 9 10 9 14 16 13 15 18 17 19 20 21 23 23 25 25 24 24 23 22 21 21 22 23 24 25 26 27 26 25 24 23 23 22 22 21 21 22 21 22 22 21 21 21 22 22 23 23 24 24 24 24 24 24 23 23 23 23 24 25 25
5 4 5 9 12 11 7 5 10 8 5 4 4 5 3 2 1 1 2 3 3 2 1 1 3 7 7 6 9 11 11 14 15 15 16 17 20 23 23 24 25 25 25 24 23 22 22 23 23 24 26 27 27 25 23 23 23 23 22 21 21 21 21 21 21 21 21 21 21 22 22 22 23 24 24 25 26 25 25 25 25 24 23 25 27 29
4 4 5 11 7 9 8 5 8 7 3 1 3 6 4 4 4 3 2 1 2 3 2 2 3 6 4 5 7 5 5 7 8 8 9 8 11 15 15 16 17 19 19 17 15 14 16 17 18 20 22 24 23 22 22 22 23 22 22 22 21 21 21 21 22 21 22 22 21 22 22 23 24 24 25 26 26 25 25 25 24 23 23 23 25 28
2 1 7 10 4 7 9 4 5 7 4 0 3 6 7 8 7 3 2 4 3 3 3 4 2 5 4 5 6 4 7 8 7 7 6 4 4 6 8 10 12 13 13 11 9 8 9 11 13 15 16 16 15 16 19 21 23 23 23 23 22 21 21 21 22 21 22 21 21 21 22 22 22 23 23 23 22 22 22 22 22 22 22 22 22 23
1 1 4 7 7 7 7 5 6 5 7 2 4 5 7 8 9 7 5 4 2 1 2 3 2 4 6 6 6 4 7 9 8 8 9 9 7 5 4 6 7 8 8 8 7 5 6 7 9 9 8 8 9 11 13 16 18 20 21 22 21 21 20 19 20 20 20 20 20 20 20 20 21 22 21 20 20 19 19 20 20 21 21 21 22 22
3 3 3 6 7 6 6 5 6 6 8 3 2 6 9 9 9 7 6 5 2 2 2 4 3 1 5 6 6 4 6 8 7 7 9 11 11 10 8 5 3 1 2 3 3 4 4 4 4 3 3 3 5 6 7 9 10 13 15 17 17 17 16 16 16 16 16 17 17 18 18 19 20 20 19 18 19 19 18 19 19 19 20 21 22 22
3 5 6 6 6 4 5 4 5 8 6 2 3 6 7 8 8 6 6 4 1 1 2 5 3 1 5 6 5 5 4 7 6 6 6 9 12 13 13 12 12 12 12 13 12 11 11 9 8 7 5 4 3 3 3 4 4 5 6 7 8 9 10 10 11 11 13 13 14 15 16 17 17 17 17 17 18 18 19 20 20 20 21 21 22 22
1 4 6 6 5 5 3 1 1 4 4 4 6 7 7 7 6 5 5 4 3 2 3 4 3 1 4 6 4 3 2 5 5 5 5 5 10 12 13 14 16 18 19 19 18 17 16 15 14 13 12 10 9 8 7 6 6 5 5 4 3 3 4 5 6 8 9 11 12 14 14 16 15 15 16 17 18 18 19 20 20 21 21 21 22 22
1 2 2 2 3 5 5 5 5 4 8 12 8 7 7 6 5 4 3 4 4 2 5 4 3 0 2 6 4 1 2 4 3 1 3 3 9 12 12 14 17 19 21 20 20 20 19 19 18 17 17 16 16 15 14 13 12 11 9 8 7 5 4 2 1 2 4 6 7 9 10 12 13 13 14 15 17 17 18 20 20 21 21 22 22 23
4 4 1 1 5 8 8 7 8 6 9 9 4 5 6 4 4 4 4 3 3 3 5 4 2 1 2 4 3 3 4 4 5 4 3 3 8 11 10 13 16 19 20 21 21 21 21 21 21 21 21 21 21 21 20 20 18 17 16 14 13 11 10 8 6 4 3 2 3 4 6 8 8 10 11 13 14 15 17 19 19 20 22 23 23 23
3 1 2 2 3 5 6 6 5 4 4 5 5 7 5 2 2 2 3 1 2 5 3 2 2 2 5 7 5 6 7 6 7 7 5 4 5 9 10 13 16 19 21 22 23 23 24 26 26 26 26 25 25 24 24 23 22 21 20 18 17 16 14 13 11 9 8 6 5 5 6 7 8 9 11 13 14 15 16 18 19 20 22 23 23 24
1 3 2 3 2 4 3 6 4 1 0 4 5 6 5 3 3 2 3 2 3 4 3 3 2 1 4 6 8 10 8 7 8 9 8 6 4 6 10 14 18 22 24 25 25 25 26 27 27 27 26 25 24 23 23 22 21 20 19 18 17 16 15 14 13 12 11 10 9 8 8 8 9 10 12 14 15 15 16 17 19 20 21 22 23 23
3 3 3 2 2 3 2 3 5 5 4 2 2 5 5 5 5 4 4 3 3 2 2 3 2 3 3 3 6 8 7 7 9 11 11 6 2 7 12 17 20 23 25 25 25 25 25 25 24 23 22 21 20 20 19 19 18 17 16 15 14 13 13 12 11 11 11 11 11 12 12 13 13 14 14 15 16 17 18 18 19 20 21 22 22 22
3 3 3 2 1 3 3 2 3 6 3 1 1 5 3 4 5 4 3 5 4 1 1 2 3 4 4 4 5 4 6 7 8 10 10 6 4 11 16 18 21 24 24 24 23 24 23 22 21 20 19 19 17 16 15 15 15 14 13 12 12 11 11 11 10 11 11 12 13 13 14 15 16 17 18 18 18 18 19 20 20 20 20 21 22 22
3 1 3 4 3 2 1 2 2 3 3 2 2 3 4 4 7 6 2 1 3 1 2 1 3 5 3 4 5 1 3 4 3 5 9 8 9 15 18 19 21 23 23 22 22 22 21 20 19 18 17 16 15 13 12 11 11 11 11 10 10 10 10 11 11 12 12 13 14 15 16 17 18 19 20 20 20 19 19 20 20 20 20 20 20 20
5 2 3 2 2 2 2 5 7 6 4 4 3 5 4 3 5 5 2 3 4 1 3 1 3 4 1 2 5 3 6 5 3 5 7 9 14 18 19 19 21 22 22 21 20 20 19 18 17 15 14 13 12 11 10 9 9 9 9 10 10 10 10 11 12 13 13 13 14 15 16 17 18 19 20 20 20 20 20 19 19 19 19 18 18 19
5 3 3 2 2 2 3 4 5 6 6 4 5 4 4 3 2 2 3 2 1 2 4 3 3 3 3 4 3 2 7 7 5 5 6 10 17 21 20 19 21 23 21 19 19 18 17 16 15 13 12 11 10 9 8 8 8 8 9 9 9 9 10 11 11 12 13 14 14 15 16 17 18 18 18 19 20 20 20 19 18 18 18 17 17 18
4 4 1 1 1 1 3 1 5 1 5 5 3 3 2 2 4 2 2 4 3 3 2 3 3 3 6 6 5 7 8 7 7 5 6 13 20 24 23 22 23 22 19 18 18 16 15 14 13 12 11 10 9 8 8 7 6 7 7 8 8 9 10 11 12 12 13 14 15 16 17 18 18 18 18 18 18 19 20 19 19 19 19 18 17 18
3 3 3 1 3 1 2 2 6 7 3 3 3 4 1 2 2 1 1 2 3 4 3 2 3 5 6 5 7 8 6 6 8 7 9 16 22 24 23 23 24 20 18 17 16 15 13 11 10 10 9 8 7 6 6 6 6 7 7 8 9 10 11 12 13 14 15 16 17 17 18 18 17 17 17 18 18 18 19 19 19 19 20 20 19 19
2 3 5 3 1 3 3 3 3 4 4 5 5 6 6 4 4 3 2 1 2 3 4 4 3 7 6 3 5 6 5 6 7 7 13 20 24 24 23 24 22 17 16 16 15 12 11 9 8 7 6 5 5 5 6 7 7 8 9 10 11 12 13 14 15 15 16 16 16 16 15 15 15 16 16 16 17 17 18 18 18 18 19 19 19 20
3 4 5 2 3 4 3 3 2 3 1 3 3 3 5 4 5 6 5 3 2 2 2 3 1 7 6 4 5 6 7 7 6 8 15 22 25 23 21 23 20 15 14 14 12 10 9 7 6 4 4 4 5 6 7 8 9 9 10 11 11 12 13 13 14 14 14 14 14 14 14 14 15 15 15 16 16 16 17 18 18 18 19 19 19 20
3 4 4 1 2 2 4 4 2 1 1 2 3 2 5 3 3 5 5 4 4 4 3 3 2 6 5 4 5 7 7 6 6 11 18 23 24 21 19 21 18 12 12 12 10 8 7 5 4 3 3 4 5 7 8 9 10 10 10 10 10 10 10 10 10 10 10 11 11 13 13 14 14 14 14 15 16 17 17 18 19 20 20 20 20 20
5 2 5 3 2 3 4 4 3 3 1 3 3 3 4 4 6 4 2 4 2 5 7 5 4 7 5 4 3 3 1 3 7 13 19 20 20 17 17 20 15 9 9 10 8 6 5 3 2 3 4 5 6 7 7 8 8 8 8 8 7 7 7 7 7 7 8 8 9 10 11 11 12 12 13 14 15 16 18 19 20 21 22 23 23 23
7 3 5 6 6 6 5 4 4 3 3 2 2 4 6 6 8 5 3 4 3 5 6 6 5 5 5 4 3 2 2 4 7 12 16 16 16 17 17 16 12 10 9 8 6 4 3 3 3 4 5 5 6 6 5 6 6 7 7 7 7 7 7 7 7 7 7 8 8 8 9 10 11 11 12 14 15 17 19 20 21 22 23 24 24 25
4 1 6 8 10 10 8 6 3 5 6 3 3 7 8 7 8 6 5 4 5 3 4 7 5 4 5 4 3 4 4 6 8 13 16 14 15 16 15 13 10 10 9 7 5 3 2 3 4 5 6 7 7 7 7 7 7 6 6 7 7 8 8 8 8 8 9 9 9 10 10 11 12 14 15 16 18 19 20 22 23 24 24 25 25 26
4 3 7 7 10 7 5 5 3 6 8 8 7 9 9 8 8 7 7 8 6 6 7 9 7 7 8 7 7 7 6 6 10 19 20 15 13 12 11 10 10 9 7 6 4 2 1 2 3 5 7 8 8 7 8 7 7 6 7 7 8 9 9 9 9 10 10 11 11 12 12 13 15 16 18 19 20 21 22 23 23 24 25 25 26 26
4 5 6 5 8 4 3 4 5 7 7 7 10 12 11 11 11 12 14 11 9 8 11 6 11 11 9 7 9 10 12 14 18 22 20 14 12 11 9 9 9 8 7 4 2 2 2 2 3 5 5 6 6 7 7 6 6 6 7 8 9 10 11 11 11 12 12 13 13 14 14 15 17 18 19 20 20 21 22 22 23 23 24 25 26 26
3 4 4 6 7 4 2 3 4 6 5 5 9 12 13 14 16 17 18 14 12 13 9 7 11 13 8 8 11 13 16 16 14 17 17 14 11 10 9 9 9 7 5 4 3 3 3 2 2 2 4 6 6 5 5 5 5 6 7 9 10 10 11 12 13 14 14 15 15 16 16 16 17 17 18 19 19 20 21 22 23 24 24 25 25 26
3 3 3 6 4 5 3 3 3 4 4 4 6 8 10 14 15 17 17 13 10 11 5 6 6 10 5 7 11 11 13 11 11 16 20 15 10 9 9 9 7 6 6 6 6 4 3 1 2 4 6 7 6 5 5 5 6 7 8 10 10 11 12 13 14 15 15 16 16 17 17 17 17 18 19 19 20 22 23 24 25 26 27 27 27 28
4 2 2 5 4 5 2 3 5 5 5 1 4 8 12 13 13 14 11 7 9 11 7 4 7 9 5 8 12 11 11 12 15 20 20 14 11 10 11 10 9 9 9 8 6 3 2 4 5 5 5 5 5 4 4 5 6 8 9 10 11 12 13 14 14 15 16 16 17 17 18 18 19 20 21 22 23 25 26 27 28 29 30 30 30 31
5 5 2 4 6 4 4 3 7 7 4 3 8 12 16 14 12 8 4 4 10 11 8 8 11 8 8 12 11 8 7 12 17 21 22 19 14 12 12 12 12 10 8 6 4 4 5 5 4 4 3 3 3 3 4 5 6 7 8 10 11 12 13 14 15 15 16 17 17 18 19 20 20 22 23 25 27 28 30 31 32 33 33 34 33 34
4 6 3 4 4 3 4 2 6 4 5 8 6 10 16 16 14 10 8 11 14 11 9 9 7 4 9 12 12 11 14 18 21 22 21 20 17 15 14 13 11 9 8 7 6 5 5 5 4 3 2 2 2 2 3 4 5 7 8 9 10 11 12 14 15 15 16 17 18 19 20 21 23 24 26 27 29 31 33 34 34 34 35 35 35 35
5 6 3 2 4 1 1 3 4 5 9 6 3 4 12 14 14 14 13 13 12 11 11 11 7 5 12 16 18 21 24 24 21 19 17 16 16 15 14 13 11 11 10 9 8 7 6 6 4 3 2 1 0 1 3 4 5 7 8 9 11 12 13 14 15 17 18 19 20 21 23 24 25 27 29 30 33 35 36 36 36 36 36 37 37 37
6 6 3 2 3 3 2 3 5 6 4 3 4 3 4 5 7 7 10 11 9 10 11 14 15 10 12 17 18 18 19 18 15 15 15 14 13 12 13 14 14 13 12 11 10 9 8 7 5 3 2 1 1 2 3 5 6 7 9 10 12 14 15 17 18 19 20 21 23 24 26 28 29 31 33 35 37 38 39 39 39 39 39 40 40 40
6 5 3 3 3 3 3 4 3 4 5 4 5 3 4 7 9 9 7 9 11 14 15 15 16 10 11 14 15 14 14 11 8 8 11 12 13 13 13 14 15 15 14 13 12 10 8 6 4 3 1 2 3 4 6 7 8 9 11 13 15 16 18 20 21 23 24 25 26 28 29 31 33 35 36 38 39 40 40 40 40 40 41 42 42 42
4 3 4 4 3 3 4 2 1 3 7 8 6 4 8 13 14 12 7 7 8 15 23 19 13 9 12 13 15 17 14 8 3 8 14 16 16 16 16 16 17 16 15 14 11 9 8 5 3 2 2 4 5 7 8 9 11 13 14 16 18 20 22 23 25 26 27 28 29 30 32 33 34 36 37 38 38 38 39 39 40 40 41 42 44 44
3 2 4 3 2 3 4 4 4 6 8 6 5 5 11 18 16 12 4 9 5 12 25 22 12 13 17 20 22 19 11 5 6 11 20 22 19 18 18 18 18 16 14 13 11 9 7 4 2 0 2 4 6 9 10 12 14 16 18 20 21 23 25 26 27 28 28 29 29 30 31 31 33 34 35 36 36 37 38 38 39 40 40 41 43 44
3 2 3 4 4 5 5 5 5 4 4 4 5 4 10 19 19 13 4 10 3 11 22 24 19 21 25 27 25 16 9 9 9 14 24 25 20 20 19 18 18 16 14 12 10 8 6 3 1 2 4 6 9 11 13 15 17 18 20 21 22 24 25 25 26 26 26 27 27 28 29 29 30 32 32 34 35 36 37 38 39 40 41 41 42 43
3 2 3 6 7 8 9 7 4 4 5 5 3 6 15 18 13 7 7 7 9 15 20 25 26 26 26 29 26 18 15 13 8 14 26 27 23 22 20 17 17 14 12 11 8 5 3 1 2 4 7 9 11 14 16 17 18 19 20 20 21 23 23 24 25 25 25 26 26 27 28 28 29 30 31 32 34 36 36 37 38 39 40 41 42 43
5 3 3 5 6 6 7 6 3 4 5 4 6 11 15 11 5 7 6 4 10 15 15 19 22 20 21 29 30 23 18 12 10 19 28 27 24 23 20 17 15 12 10 9 6 3 1 2 5 7 10 12 14 16 18 19 19 20 20 21 22 23 24 25 26 27 27 27 27 28 28 28 29 30 31 32 33 35 36 36 36 37 39 40 41 42
6 5 3 4 5 4 3 5 5 4 3 13 15 8 6 5 3 5 7 6 7 11 12 14 15 13 17 25 25 20 16 16 20 26 28 25 23 21 18 15 13 10 7 5 3 2 3 6 8 10 12 14 16 19 20 21 21 21 21 22 23 24 26 27 27 28 28 28 29 29 29 30 30 30 31 32 33 35 35 36 36 37 37 38 40 41
4 5 4 4 4 5 5 6 5 3 9 21 16 4 12 15 5 2 10 10 8 11 12 12 12 13 17 23 23 21 21 24 28 29 27 24 21 19 17 13 10 7 5 2 3 5 7 9 11 13 15 17 18 20 21 22 23 23 23 24 24 25 27 28 29 29 29 30 30 30 30 31 31 31 31 32 33 34 35 36 36 37 38 38 39 40
4 4 3 3 3 4 4 4 4 4 14 24 13 3 17 24 10 4 11 12 10 13 13 12 14 16 18 22 25 26 26 28 29 28 26 23 19 16 14 10 7 5 2 3 5 7 9 11 13 15 16 17 19 20 21 22 23 24 24 25 25 26 28 29 30 30 30 31 31 31 32 32 32 32 32 33 34 35 35 36 37 37 38 38 39 40
2 1 3 2 2 2 1 3 3 3 10 19 11 2 12 22 14 8 9 9 10 12 13 13 16 18 21 24 26 28 28 29 28 25 22 20 17 14 11 8 5 3 3 5 7 9 11 13 15 17 17 18 19 20 21 22 23 25 25 26 26 27 28 29 31 31 31 32 32 33 33 34 34 34 34 35 35 36 37 37 38 39 39 40 40 41
2 3 3 1 3 4 3 4 3 2 6 13 12 7 10 16 16 12 9 9 11 13 15 16 17 20 25 26 26 28 28 26 25 23 20 17 15 12 9 7 5 5 6 8 10 12 14 16 18 19 20 19 19 20 20 21 23 24 25 26 27 28 29 30 32 33 34 34 35 35 36 36 37 38 38 38 38 39 39 39 40 41 42 42 42 42
2 5 4 2 3 4 3 4 2 1 3 9 11 10 10 14 16 14 12 13 15 16 19 20 20 23 26 25 25 27 27 23 21 20 18 15 13 11 9 7 6 6 8 9 12 14 16 18 20 21 21 21 21 21 21 21 22 23 25 27 28 30 31 33 34 35 36 37 38 39 39 40 41 41 42 42 42 43 43 43 43 44 44 43 44 45
4 5 4 2 2 1 2 3 0 2 2 7 13 16 15 16 17 16 16 18 19 21 23 24 23 24 25 24 23 24 25 22 19 17 16 14 12 10 8 7 6 7 9 12 14 17 19 21 21 22 22 22 22 22 22 22 23 24 26 29 31 33 35 36 37 38 39 40 41 42 42 42 43 44 45 45 46 46 46 46 46 47 47 46 46 46
5 4 3 3 3 2 4 6 9 5 2 9 19 22 19 18 18 17 18 21 23 24 25 26 26 24 23 22 20 19 19 19 18 16 15 13 10 9 7 7 8 10 12 15 17 19 20 21 22 23 23 23 23 23 24 24 26 27 29 31 33 35 37 38 39 40 41 42 42 42 43 43 44 44 45 46 47 48 48 48 48 48 49 49 48 47
8 7 6 6 5 7 11 17 21 14 7 11 20 23 21 20 20 20 22 24 25 26 27 27 27 27 25 23 20 17 15 15 15 15 13 10 9 8 8 9 11 13 15 17 19 20 21 21 22 23 23 23 24 25 26 27 28 29 31 32 34 36 37 39 40 41 42 43 43 43 44 44 45 45 46 46 47 48 49 50 50 49 49 50 50 49
Wind_Direction
118 122 145 171 181 182 177 145 140 143 127 132 123 107 139 152 206 244 262 312 39 148 250 255 264 281 277 276 278 279 282 273 271 272 271 269 264 261 259 253 249 247 248 248 246 242 239 239 239 239 241 242 242 243 246 248 250 251 252 252 252 252 253 253 254 255 256 257 258 259 260 261 263 265 267 269 269 269 266 264 262 263 267 269 272 273
106 146 198 207 183 158 141 123 107 95 88 99 122 126 132 165 192 224 244 322 18 162 259 348 317 277 269 270 272 275 276 264 263 263 266 267 263 261 259 256 253 251 252 251 249 247 244 244 243 242 243 245 248 251 252 253 252 252 252 252 251 251 252 252 254 255 257 259 261 264 266 269 270 268 268 270 273 275 275 273 266 260 261 262 264 264
119 189 226 194 140 107 86 92 95 87 85 84 109 126 146 212 216 277 286 337 15 151 266 349 338 280 270 267 269 268 260 261 266 263 264 267 264 261 258 259 260 258 257 255 253 251 250 250 250 251 253 253 255 255 254 253 250 250 251 252 251 250 250 252 254 256 258 261 263 265 267 269 270 270 270 271 271 272 272 274 272 270 270 270 274 276
163 247 227 161 138 111 79 79 96 87 82 88 110 128 172 227 166 203 253 330 19 81 259 305 309 286 286 291 280 270 260 266 272 268 266 267 265 265 263 265 266 263 261 259 257 255 253 252 252 254 254 255 255 253 251 249 248 249 250 251 250 249 249 250 252 255 257 259 261 263 264 265 266 266 267 267 267 266 266 266 267 269 269 268 272 278
176 280 160 142 132 118 108 102 114 107 78 64 144 141 166 192 172 192 197 43 14 32 38 27 322 295 315 322 292 295 304 287 285 282 279 277 272 272 272 270 267 265 266 265 260 252 247 244 245 248 251 253 253 250 247 245 244 246 246 247 247 248 248 249 251 253 255 256 257 259 261 261 262 263 263 263 264 266 267 270 272 275 272 266 264 265
192 290 145 135 110 120 121 135 160 137 111 158 207 173 169 166 154 150 112 80 47 9 2 24 347 287 319 315 273 309 342 314 314 330 336 346 316 291 284 276 269 268 271 272 266 250 239 233 237 247 251 252 250 245 243 242 242 243 243 244 245 247 248 249 250 251 254 255 256 258 260 262 265 266 267 269 273 276 277 280 281 280 279 276 272 266
152 77 129 130 129 130 128 164 195 147 119 165 215 162 144 131 125 134 123 93 104 192 342 41 137 256 318 310 272 311 326 306 321 349 9 30 29 11 333 298 281 272 268 266 263 252 238 229 233 244 246 241 237 236 239 240 241 241 240 241 242 245 247 248 248 248 251 253 254 257 261 264 267 269 273 279 282 283 283 281 278 275 274 275 275 275
118 107 88 104 117 122 137 182 210 149 129 183 197 129 129 123 130 143 115 97 171 205 338 19 104 212 301 279 275 324 321 310 336 344 1 32 43 48 50 51 60 109 157 159 155 143 146 158 168 176 184 206 217 226 231 233 237 238 237 237 238 240 242 243 244 244 247 250 254 258 262 264 267 271 277 282 282 281 280 277 273 271 270 270 271 271
105 158 174 139 123 143 173 218 198 136 111 235 183 124 129 124 125 124 98 98 44 44 295 331 34 182 266 275 302 355 331 310 333 320 331 23 44 53 62 74 86 96 106 110 110 108 106 105 104 105 105 112 135 163 182 193 204 210 217 221 225 229 233 237 238 240 243 247 253 256 260 264 269 275 280 281 280 279 278 277 275 272 271 270 271 271
70 180 185 147 139 173 183 330 168 121 99 162 141 98 85 78 82 86 88 105 56 49 230 287 3 202 264 285 307 12 319 271 284 287 298 10 43 51 62 79 90 97 100 101 100 98 97 97 95 93 92 93 95 99 104 107 111 117 125 137 157 186 209 227 233 239 246 251 257 263 268 274 279 283 283 281 281 280 280 280 278 276 276 275 273 272
325 119 126 100 135 156 133 62 34 72 127 137 121 80 70 41 38 53 50 86 71 333 247 259 307 289 275 282 265 213 222 219 202 239 286 9 47 52 65 84 94 99 100 99 98 97 96 95 94 92 91 90 88 87 89 89 90 91 92 95 97 101 109 125 181 236 257 267 277 282 287 289 291 290 287 287 287 288 287 285 284 282 279 277 275 273
8 71 42 75 123 126 111 65 41 69 114 117 99 97 87 13 11 27 1 43 97 250 256 262 275 149 209 260 261 243 250 220 180 179 232 324 35 51 73 91 97 101 100 98 98 97 96 95 94 93 91 89 87 86 85 84 83 83 82 82 82 81 80 78 75 66 47 7 335 319 312 308 306 303 301 302 303 299 295 292 290 285 281 278 276 275
41 59 326 59 146 151 117 83 48 18 40 76 106 116 102 19 19 7 315 347 198 235 265 265 219 185 231 250 258 260 258 238 218 216 237 289 14 52 84 100 102 103 101 100 99 96 95 94 93 92 89 88 87 85 83 81 78 77 75 74 72 71 68 66 64 60 55 46 28 3 345 328 315 309 304 304 305 302 299 296 292 287 284 282 279 278
39 310 310 94 218 226 152 123 134 255 185 131 142 135 133 120 102 230 259 294 251 249 278 269 246 248 266 264 245 238 242 237 235 244 261 287 1 60 102 109 107 106 103 99 96 93 92 92 91 88 85 84 83 81 79 75 71 68 65 63 60 58 55 52 51 48 44 39 29 17 6 350 331 318 307 299 297 297 297 297 295 292 289 286 284 282
161 263 231 157 204 200 174 159 151 139 130 166 168 129 146 155 146 195 209 189 221 255 295 283 259 188 203 259 227 221 252 255 242 250 257 267 22 95 118 116 111 106 101 99 97 94 92 91 90 87 83 82 81 79 74 68 64 59 55 52 48 44 41 35 31 28 24 20 15 8 2 354 345 337 326 315 303 296 294 295 295 295 292 289 287 284
154 229 263 309 299 149 160 213 129 104 110 230 113 105 158 181 136 138 174 172 167 127 311 257 239 216 215 265 264 254 269 255 233 238 238 228 120 122 128 121 114 108 103 102 100 97 96 94 93 90 85 83 80 76 70 62 57 51 46 41 34 28 21 14 9 7 6 6 2 359 355 350 346 342 337 332 322 309 299 294 293 295 295 292 288 286
150 247 319 352 8 54 118 198 101 99 157 158 115 165 209 161 115 115 153 59 83 146 260 226 250 294 312 283 300 358 195 222 208 196 198 183 145 136 134 124 117 113 107 104 99 97 96 94 92 88 83 79 74 69 62 54 47 37 29 21 14 7 357 350 349 349 350 353 352 350 349 345 342 339 335 333 330 323 312 300 295 295 297 295 290 286
151 118 339 27 75 6 34 93 66 44 89 124 170 195 179 117 98 108 122 23 43 216 277 287 233 287 334 260 325 64 159 219 225 161 165 166 151 143 136 127 122 116 108 102 97 94 91 87 84 78 73 67 60 55 48 38 27 16 8 1 354 346 338 335 337 339 340 342 343 341 340 338 335 333 329 327 325 324 320 311 301 297 296 295 290 284
129 106 331 11 126 292 348 91 85 28 39 108 169 158 115 134 164 98 126 136 103 212 277 305 271 260 202 217 287 174 183 217 212 154 142 160 155 147 140 131 126 119 108 99 94 92 87 82 77 69 62 56 47 42 37 29 16 3 355 349 342 335 333 333 333 334 334 335 335 334 334 332 330 327 322 319 317 320 321 316 306 300 296 293 289 284
113 116 216 303 265 270 2 97 177 179 28 51 111 117 77 125 161 158 143 158 168 183 244 309 320 260 225 215 213 207 208 208 190 164 162 169 160 150 143 134 128 120 106 97 94 90 85 80 74 66 58 49 39 33 27 20 5 354 346 338 332 328 327 326 324 326 329 330 330 329 329 327 325 322 318 315 315 319 322 320 313 306 299 293 289 285
96 121 163 313 321 214 174 218 194 176 143 103 128 158 169 77 120 159 91 113 139 154 181 243 295 269 245 212 202 213 223 205 185 169 170 170 159 150 143 137 130 118 103 99 98 94 91 85 76 67 56 44 34 20 7 357 346 339 332 325 322 320 319 317 317 319 321 322 322 322 322 322 321 321 319 319 320 322 323 323 321 316 308 303 296 289
126 137 146 138 230 193 219 258 213 185 172 161 172 180 172 141 121 145 241 244 121 135 166 168 247 271 256 204 206 216 217 220 210 181 170 167 157 149 142 139 133 116 102 105 105 103 101 95 85 71 57 42 22 2 351 341 333 327 323 321 321 319 319 318 317 318 320 321 320 319 320 321 323 325 325 325 326 327 328 328 328 325 321 317 311 305
116 107 115 144 207 205 257 293 232 230 207 143 189 184 155 150 134 149 204 220 123 116 148 122 232 275 263 210 216 236 241 246 241 195 174 163 155 150 145 144 139 118 106 113 113 111 108 96 85 67 42 21 5 356 349 340 335 331 327 324 322 321 320 320 320 322 324 325 324 324 326 328 331 334 336 338 340 341 341 341 339 336 333 330 325 320
123 105 108 80 312 314 321 343 11 330 66 146 236 185 155 180 145 145 180 166 137 164 148 85 289 269 273 253 243 255 254 245 210 181 173 164 156 153 151 150 144 122 113 123 123 118 114 99 83 57 26 12 6 358 350 346 339 334 332 331 330 329 327 325 324 324 325 326 326 327 330 334 338 343 346 349 352 353 352 351 349 347 344 340 337 332
178 153 126 118 37 4 350 355 338 314 242 203 226 188 166 125 93 98 115 103 137 199 160 145 234 252 275 300 297 292 247 196 178 170 167 161 155 154 153 152 149 134 129 136 135 128 120 100 62 39 28 20 13 0 352 350 345 344 349 354 355 355 351 347 343 337 333 332 332 332 334 339 343 347 350 353 354 353 352 350 348 347 345 342 341 338
171 181 150 149 161 182 197 204 222 223 190 205 203 178 176 143 137 151 113 115 219 220 162 170 223 254 281 309 333 349 104 140 163 165 163 157 151 151 149 148 153 153 150 146 140 131 107 58 33 35 39 36 30 25 21 21 16 13 15 17 20 19 13 10 5 359 354 349 345 343 341 343 345 347 348 349 348 346 345 344 342 341 340 338 337 336
133 226 184 183 194 196 192 194 178 125 141 183 180 170 174 168 164 141 106 168 199 151 181 215 195 195 247 256 257 245 186 162 170 174 174 167 156 150 145 145 153 155 153 148 137 123 67 36 35 41 50 52 52 50 45 39 33 28 25 24 25 23 18 14 7 2 358 353 350 347 343 343 343 344 343 343 342 341 339 337 334 333 332 331 330 330
88 216 202 202 212 203 164 175 161 129 159 176 162 163 173 172 161 151 186 206 146 126 232 231 175 190 232 230 229 229 203 192 193 186 182 176 164 154 146 148 154 155 154 149 141 130 61 40 40 47 58 58 50 39 30 28 28 26 21 17 15 13 11 7 2 358 353 350 347 344 343 342 340 339 339 337 336 334 332 331 329 327 326 325 324 324
116 201 207 196 211 203 115 165 170 146 159 165 164 172 173 171 172 186 212 207 148 184 237 197 166 206 225 212 222 219 200 196 194 188 182 173 167 160 153 158 162 166 167 163 172 175 131 81 56 55 52 38 19 9 10 14 14 13 8 4 3 360 358 358 356 353 350 346 344 342 342 341 338 336 335 334 334 332 331 330 329 327 325 323 321 320
145 197 186 169 205 218 158 185 175 146 140 152 179 182 172 177 187 197 214 209 185 215 231 148 179 220 214 199 217 217 209 201 188 186 188 182 173 164 165 176 176 174 177 182 184 161 115 82 62 31 348 334 337 345 354 357 358 359 356 356 355 352 352 353 351 349 347 345 344 343 342 341 339 338 337 337 338 338 338 337 335 333 331 328 325 322
184 210 154 137 195 247 211 172 146 132 137 163 191 192 181 188 197 206 218 210 198 229 224 125 219 250 228 215 226 220 215 204 184 194 201 195 183 177 182 187 186 186 187 180 168 152 141 196 285 299 300 301 305 319 334 339 345 349 347 347 348 349 351 351 350 348 346 345 345 343 342 341 341 340 339 340 341 340 340 339 338 336 334 332 331 329
174 189 75 111 175 252 268 150 136 86 67 98 215 204 194 197 203 211 215 185 184 217 208 162 252 256 192 201 227 224 211 202 200 206 208 205 197 194 199 200 193 188 179 171 168 178 232 270 286 286 280 280 285 298 316 324 331 336 339 341 343 348 349 346 347 348 345 344 344 341 340 340 340 340 340 339 340 339 338 337 336 334 332 331 331 330
157 151 125 142 178 256 323 128 129 92 71 264 244 208 196 202 206 202 212 200 198 203 192 203 238 232 161 176 209 221 209 212 217 216 213 214 212 206 205 201 194 188 186 195 219 244 259 263 262 258 258 269 282 303 324 330 333 335 339 342 340 342 343 340 340 342 340 340 339 337 337 337 337 338 338 337 337 336 335 334 333 332 331 329 329 328
138 142 164 162 160 256 298 106 108 119 206 235 234 189 187 198 199 189 204 216 209 203 206 222 234 173 156 177 194 206 215 222 227 226 220 218 217 210 203 200 204 211 218 228 229 221 220 219 215 224 235 247 282 330 346 349 350 346 345 344 338 335 335 333 332 333 333 332 332 332 332 331 332 333 333 334 333 332 331 330 329 329 327 326 326 325
146 143 159 145 123 161 274 98 124 205 227 246 290 188 188 193 189 193 216 225 212 209 225 243 248 183 179 190 194 204 217 223 228 233 230 223 217 211 207 207 213 217 213 207 199 188 180 178 177 178 175 162 50 6 358 351 351 346 340 336 333 329 327 326 325 325 325 325 325 325 325 325 327 327 328 328 328 327 326 325 324 324 323 322 322 322
150 148 136 129 133 129 130 164 193 233 261 279 288 257 176 154 151 186 238 253 227 208 214 232 238 213 185 195 201 208 217 216 215 223 223 216 211 209 210 208 201 199 194 184 178 172 162 159 155 146 132 87 35 3 350 343 339 337 333 329 326 323 321 320 319 318 319 319 320 321 321 321 322 322 323 324 323 322 321 320 320 320 319 318 318 318
144 150 140 173 182 142 153 202 239 313 314 255 243 231 159 148 153 172 226 252 226 206 202 219 234 210 173 191 200 192 189 185 192 211 203 195 195 195 196 194 186 183 178 170 168 165 157 154 145 120 56 4 350 339 337 335 331 328 327 323 319 317 316 315 315 315 316 317 317 318 318 318 318 319 319 318 318 317 316 316 315 315 314 313 312 312
135 149 154 186 202 129 135 204 265 269 254 237 223 202 180 182 175 166 193 246 234 204 200 211 227 194 168 180 180 167 162 164 216 219 195 188 189 185 180 178 175 171 168 165 163 159 152 147 137 103 9 344 332 327 326 326 324 322 322 320 316 314 313 312 312 312 312 312 313 313 314 315 315 315 314 314 314 313 312 312 312 311 311 310 309 309
91 81 124 155 196 148 164 214 207 219 248 241 213 200 187 183 163 128 167 253 255 194 199 207 209 189 183 183 175 161 153 182 234 213 191 185 184 178 175 172 167 164 163 161 157 155 153 145 142 151 330 320 313 316 319 320 319 317 316 315 311 309 308 307 306 306 307 308 309 310 312 313 313 313 313 312 312 312 312 311 311 311 310 310 309 307
125 116 138 165 196 194 195 217 226 241 256 234 233 227 174 163 144 118 206 251 207 169 194 202 202 203 200 187 172 163 178 208 228 209 189 182 176 173 171 167 163 161 160 157 154 155 156 143 137 293 310 313 313 316 317 317 316 314 313 311 308 306 305 304 304 306 307 308 310 311 313 314 314 314 313 312 311 311 311 312 312 311 311 310 309 308
154 164 183 191 202 205 205 218 252 265 239 231 229 163 146 143 141 163 224 226 172 175 194 199 203 211 203 183 173 183 202 209 218 192 180 175 171 167 163 160 161 161 159 158 155 149 147 96 348 333 327 325 322 320 318 317 316 315 314 312 309 308 308 308 309 311 312 313 313 314 315 316 315 315 314 313 312 310 310 312 312 311 310 310 309 308
175 175 184 194 201 206 212 219 236 258 238 180 134 141 146 146 180 212 205 176 181 190 194 196 203 210 200 187 186 194 198 192 179 173 170 169 167 162 157 158 161 162 164 167 166 165 198 315 332 333 329 327 325 322 320 319 318 318 317 316 314 313 313 313 314 315 316 316 317 317 317 317 316 316 314 313 312 310 309 310 311 310 310 310 309 309
175 167 175 191 185 181 208 207 206 250 202 136 124 119 164 183 230 207 176 164 190 197 194 196 201 202 193 189 188 188 181 168 165 165 162 161 161 158 159 163 164 167 176 179 197 257 298 318 325 327 327 327 326 325 324 322 322 322 322 321 319 317 316 315 316 316 317 318 318 318 317 316 315 314 313 311 310 309 309 309 310 310 310 310 310 310
182 174 185 201 184 173 197 206 203 212 163 155 150 167 203 202 227 200 182 183 187 193 196 195 191 188 188 184 176 170 165 158 158 160 158 158 162 163 163 166 167 175 190 218 281 305 316 318 319 324 327 328 328 328 327 325 323 323 322 321 319 318 316 315 315 316 316 316 316 315 314 313 312 312 311 310 309 309 309 309 309 309 309 310 310 310
215 194 169 180 184 171 187 211 212 178 173 178 183 204 196 200 208 178 188 197 188 183 187 183 175 173 178 176 167 160 158 157 157 160 160 161 165 166 165 168 173 181 220 285 303 313 315 313 317 323 327 330 330 329 327 324 321 320 320 320 318 317 315 314 314 314 314 314 314 314 314 313 313 313 313 312 312 311 310 310 309 309 308 308 308 308
252 179 116 129 207 223 253 218 195 175 184 191 197 194 191 198 195 170 177 192 179 173 176 178 174 168 169 173 166 158 157 158 157 160 165 166 166 169 171 176 185 209 269 290 302 309 311 315 321 326 329 331 330 326 323 321 319 318 318 317 316 315 313 312 312 313 313 314 314 315 314 313 313 313 313 313 312 311 311 311 311 310 309 308 308 308
284 165 133 125 204 200 231 238 208 195 204 198 199 201 188 188 187 178 174 181 179 176 176 176 175 169 168 172 168 160 158 160 160 163 167 169 170 175 181 192 216 252 278 293 303 310 315 321 324 325 326 326 323 321 320 318 316 316 315 314 314 312 311 311 311 312 313 313 313 313 313 313 312 312 311 311 311 310 310 310 310 309 309 309 309 308
216 166 164 220 202 181 225 270 288 316 238 210 206 208 197 190 193 191 186 185 183 177 172 170 169 167 165 167 169 164 159 162 167 169 170 175 181 187 195 211 237 263 283 298 308 313 318 320 319 320 321 320 319 318 316 314 314 314 312 312 312 311 310 310 311 312 312 312 313 312 312 312 312 311 311 310 309 309 308 308 307 306 306 306 307 307
145 164 179 179 175 204 282 278 318 35 318 230 213 210 207 203 201 193 185 184 181 176 171 168 168 169 167 166 169 169 164 165 171 176 179 184 190 197 210 229 255 279 295 305 311 313 314 314 315 317 317 316 316 316 314 315 315 314 313 312 311 311 311 311 311 312 312 312 313 313 313 313 312 311 311 309 309 308 307 306 306 305 304 304 304 304
140 176 182 114 125 228 244 205 182 167 254 225 213 211 209 203 199 192 185 182 180 180 180 175 171 171 171 169 171 173 172 171 174 181 186 191 199 213 234 259 280 291 299 303 305 307 309 311 313 314 314 314 314 313 314 315 315 314 314 313 312 312 313 313 313 314 314 314 314 314 314 314 313 312 311 310 309 308 306 306 305 304 304 303 302 302
189 192 175 156 181 222 226 212 202 200 219 222 213 211 208 201 199 197 193 188 185 184 186 185 180 176 175 174 174 175 179 180 181 186 193 203 218 236 257 273 281 289 295 299 303 306 308 309 309 309 309 309 310 311 312 313 314 314 313 313 313 314 314 314 315 315 315 315 315 315 314 313 313 312 311 311 311 310 309 308 307 305 304 304 302 301
Height
1520 1524 1528 1529 1531 1532 1533 1534 1535 1537 1539 1543 1547 1549 1552 1552 1554 1559 1559 1560 1560 1557 1557 1559 1557 1554 1550 1547 1545 1543 1544 1545 1543 1543 1543 1543 1544 1544 1545 1544 1544 1544 1544 1546 1549 1550 1551 1551 1552 1552 1553 1554 1555 1556 1556 1557 1558 1559 1561 1561 1562 1563 1564 1565 1566 1567 1568 1569 1570 1570 1571 1571 1572 1573 1573 1573 1574 1575 1576 1576 1577 1578 1579 1579 1580 1581
1521 1525 1527 1527 1530 1532 1535 1538 1537 1539 1542 1544 1546 1548 1553 1555 1554 1558 1559 1559 1561 1557 1557 1561 1559 1552 1548 1545 1543 1542 1542 1541 1540 1540 1540 1540 1541 1541 1541 1541 1541 1542 1543 1544 1546 1547 1548 1549 1549 1550 1550 1551 1551 1552 1553 1554 1555 1556 1557 1558 1560 1561 1562 1563 1564 1565 1566 1567 1568 1568 1569 1569 1570 1570 1570 1571 1571 1572 1573 1574 1575 1576 1577 1577 1578 1579
1525 1526 1526 1529 1532 1535 1539 1540 1537 1539 1543 1545 1550 1550 1552 1556 1556 1558 1560 1560 1561 1557 1555 1560 1556 1547 1545 1543 1540 1539 1539 1537 1537 1537 1537 1538 1538 1538 1538 1538 1539 1539 1540 1541 1543 1544 1545 1546 1546 1547 1547 1547 1548 1549 1549 1550 1551 1553 1554 1555 1557 1558 1559 1560 1562 1563 1564 1565 1566 1566 1567 1567 1567 1567 1568 1568 1569 1570 1571 1571 1572 1573 1573 1574 1574 1575
1527 1526 1527 1530 1532 1532 1538 1540 1537 1540 1545 1547 1549 1550 1552 1557 1555 1553 1556 1560 1561 1559 1558 1558 1554 1546 1541 1540 1537 1536 1536 1534 1535 1535 1535 1536 1535 1534 1535 1535 1535 1535 1536 1537 1539 1541 1541 1542 1543 1543 1543 1543 1544 1545 1546 1548 1548 1550 1551 1552 1554 1555 1556 1558 1559 1560 1561 1562 1563 1563 1564 1564 1564 1565 1565 1566 1566 1567 1568 1569 1570 1571 1571 1572 1572 1572
1525 1528 1529 1531 1531 1531 1536 1540 1537 1538 1545 1551 1549 1546 1548 1553 1554 1553 1556 1558 1559 1561 1561 1556 1551 1544 1539 1538 1535 1534 1535 1533 1533 1533 1533 1534 1534 1532 1533 1533 1532 1532 1532 1534 1535 1536 1537 1538 1539 1539 1540 1540 1541 1543 1544 1545 1546 1547 1549 1549 1551 1552 1553 1555 1556 1557 1558 1559 1560 1560 1561 1561 1561 1562 1562 1563 1563 1565 1566 1566 1568 1568 1569 1570 1571 1571
1525 1530 1531 1530 1532 1532 1534 1537 1537 1536 1543 1549 1547 1545 1545 1547 1551 1555 1556 1555 1555 1558 1561 1560 1553 1545 1539 1536 1534 1535 1536 1533 1532 1533 1533 1532 1532 1531 1531 1530 1530 1530 1530 1531 1532 1533 1534 1535 1536 1537 1538 1538 1539 1540 1541 1542 1543 1544 1546 1547 1548 1550 1551 1552 1554 1555 1556 1556 1557 1558 1558 1558 1558 1559 1559 1560 1561 1563 1564 1564 1565 1566 1566 1567 1568 1568
1528 1532 1531 1530 1531 1532 1534 1536 1536 1537 1541 1544 1544 1547 1548 1547 1549 1553 1552 1552 1554 1557 1564 1566 1559 1551 1543 1533 1533 1539 1538 1532 1532 1533 1532 1532 1531 1530 1530 1529 1528 1528 1528 1529 1529 1531 1532 1533 1534 1535 1536 1537 1537 1538 1539 1540 1541 1542 1543 1545 1546 1548 1549 1550 1551 1552 1553 1554 1555 1555 1556 1556 1556 1556 1557 1559 1560 1561 1562 1562 1562 1563 1563 1563 1564 1565
1529 1532 1532 1531 1531 1533 1534 1534 1536 1537 1538 1540 1545 1549 1548 1545 1548 1551 1551 1552 1557 1560 1564 1566 1562 1559 1552 1537 1535 1542 1536 1529 1532 1533 1532 1532 1531 1530 1529 1528 1527 1527 1527 1528 1528 1529 1530 1531 1533 1534 1534 1535 1536 1537 1538 1539 1540 1541 1542 1543 1545 1546 1547 1548 1549 1550 1551 1552 1553 1553 1554 1554 1554 1555 1556 1557 1558 1558 1559 1559 1559 1559 1560 1560 1561 1561
1528 1529 1530 1529 1530 1532 1533 1534 1536 1535 1536 1543 1550 1551 1548 1548 1550 1552 1552 1554 1562 1562 1559 1564 1565 1562 1554 1539 1537 1542 1533 1528 1532 1534 1534 1533 1532 1531 1530 1529 1528 1527 1527 1528 1528 1529 1530 1531 1532 1533 1534 1534 1535 1536 1537 1538 1539 1540 1541 1542 1543 1545 1546 1547 1548 1549 1550 1551 1551 1552 1552 1553 1553 1554 1555 1555 1555 1555 1556 1555 1555 1556 1556 1557 1558 1558
1528 1528 1528 1527 1527 1530 1535 1539 1539 1535 1536 1545 1551 1551 1551 1554 1555 1555 1554 1554 1561 1562 1558 1568 1573 1563 1550 1537 1534 1538 1534 1532 1534 1534 1535 1533 1533 1532 1531 1530 1529 1528 1529 1528 1529 1530 1530 1531 1532 1533 1534 1534 1535 1536 1537 1537 1538 1539 1540 1541 1542 1544 1545 1546 1547 1548 1549 1550 1550 1551 1551 1551 1552 1553 1553 1553 1552 1552 1552 1552 1552 1553 1553 1554 1554 1554
1528 1527 1528 1529 1528 1531 1536 1540 1541 1538 1538 1544 1547 1548 1550 1554 1555 1557 1560 1558 1560 1563 1564 1576 1580 1569 1554 1538 1531 1534 1533 1533 1534 1534 1535 1533 1533 1533 1531 1531 1530 1529 1530 1530 1530 1531 1531 1532 1533 1534 1534 1535 1536 1536 1537 1537 1538 1539 1540 1541 1542 1543 1544 1545 1546 1547 1548 1549 1549 1550 1550 1550 1551 1550 1550 1550 1549 1549 1549 1549 1549 1550 1550 1550 1550 1550
1528 1527 1529 1530 1530 1532 1534 1537 1542 1542 1542 1543 1542 1543 1549 1556 1558 1558 1562 1562 1561 1563 1568 1580 1583 1574 1560 1539 1529 1532 1533 1534 1534 1533 1534 1534 1533 1534 1532 1532 1531 1531 1531 1531 1531 1532 1532 1533 1534 1535 1535 1536 1537 1537 1538 1538 1539 1540 1541 1542 1543 1543 1544 1545 1546 1546 1547 1548 1548 1548 1548 1548 1548 1548 1548 1547 1547 1547 1547 1547 1547 1546 1546 1546 1546 1546
1528 1528 1531 1531 1531 1531 1530 1537 1546 1546 1544 1543 1541 1544 1550 1561 1566 1562 1566 1570 1567 1565 1572 1581 1580 1570 1558 1538 1529 1531 1530 1532 1534 1532 1533 1534 1534 1534 1533 1533 1532 1532 1532 1532 1532 1532 1533 1534 1534 1536 1536 1537 1538 1538 1539 1540 1540 1541 1542 1543 1543 1543 1544 1545 1545 1546 1546 1546 1546 1546 1546 1546 1546 1545 1545 1545 1545 1545 1544 1544 1544 1543 1543 1543 1543 1543
1529 1531 1531 1531 1531 1530 1527 1533 1542 1543 1543 1542 1541 1542 1547 1560 1568 1567 1576 1580 1570 1566 1575 1584 1576 1562 1552 1537 1527 1528 1528 1530 1532 1531 1532 1533 1534 1534 1533 1534 1533 1533 1533 1533 1534 1533 1534 1535 1535 1536 1537 1538 1539 1539 1540 1541 1541 1542 1542 1543 1543 1543 1544 1544 1544 1544 1544 1544 1544 1544 1544 1543 1543 1543 1543 1542 1542 1542 1542 1541 1541 1540 1540 1540 1540 1540
1527 1529 1528 1528 1529 1529 1528 1529 1531 1534 1539 1542 1543 1541 1541 1547 1551 1557 1565 1562 1558 1567 1577 1580 1566 1547 1538 1530 1525 1526 1527 1529 1529 1529 1531 1532 1534 1534 1533 1534 1533 1533 1534 1534 1534 1534 1534 1536 1536 1537 1538 1538 1539 1540 1540 1541 1541 1542 1542 1543 1543 1543 1543 1543 1543 1543 1543 1543 1542 1542 1542 1542 1542 1542 1541 1541 1540 1540 1539 1539 1538 1538 1537 1537 1537 1537
1524 1525 1527 1529 1528 1527 1529 1529 1529 1531 1537 1545 1546 1543 1541 1539 1541 1560 1574 1568 1566 1570 1570 1570 1558 1541 1533 1526 1525 1528 1526 1527 1528 1528 1530 1532 1533 1534 1533 1534 1534 1534 1535 1535 1535 1535 1535 1536 1537 1537 1538 1539 1539 1540 1540 1541 1541 1542 1542 1542 1542 1542 1542 1542 1542 1542 1542 1542 1542 1542 1542 1541 1541 1541 1540 1539 1539 1538 1537 1536 1536 1535 1535 1534 1534 1534
1522 1525 1529 1530 1529 1529 1529 1529 1530 1529 1533 1543 1545 1542 1543 1543 1543 1559 1579 1584 1578 1564 1557 1562 1552 1539 1535 1525 1522 1527 1524 1525 1527 1526 1529 1531 1532 1533 1533 1534 1535 1534 1535 1535 1535 1536 1536 1537 1537 1538 1539 1539 1540 1540 1541 1541 1541 1541 1542 1542 1542 1541 1541 1541 1541 1541 1541 1541 1541 1541 1541 1540 1540 1539 1538 1538 1537 1536 1535 1534 1533 1533 1532 1532 1532 1531
1516 1525 1532 1530 1529 1531 1530 1530 1531 1530 1531 1537 1540 1538 1542 1547 1545 1546 1557 1572 1577 1564 1556 1560 1552 1541 1539 1528 1520 1524 1522 1522 1526 1526 1528 1530 1530 1532 1533 1533 1534 1535 1535 1536 1536 1536 1537 1537 1538 1538 1539 1539 1540 1540 1540 1541 1541 1541 1541 1542 1542 1541 1541 1541 1541 1541 1541 1541 1540 1540 1539 1539 1538 1537 1537 1536 1535 1534 1533 1532 1531 1530 1530 1529 1529 1528
1509 1520 1532 1534 1531 1532 1531 1530 1531 1533 1533 1533 1533 1535 1537 1541 1543 1545 1550 1556 1564 1565 1557 1558 1562 1554 1543 1531 1519 1518 1519 1520 1524 1526 1527 1528 1529 1530 1531 1533 1534 1535 1535 1536 1536 1536 1537 1537 1538 1538 1539 1539 1540 1540 1540 1540 1540 1540 1541 1541 1541 1541 1540 1540 1540 1540 1540 1539 1539 1538 1538 1537 1536 1535 1535 1534 1533 1532 1531 1530 1528 1527 1527 1526 1525 1525
1506 1513 1527 1534 1532 1532 1532 1529 1529 1532 1535 1535 1535 1537 1537 1538 1540 1543 1548 1547 1548 1559 1558 1554 1556 1546 1535 1529 1517 1513 1517 1519 1522 1526 1526 1527 1528 1528 1530 1532 1533 1534 1535 1535 1536 1536 1537 1537 1538 1538 1539 1539 1539 1539 1539 1539 1540 1540 1540 1540 1540 1540 1540 1539 1539 1539 1538 1538 1537 1537 1536 1535 1534 1533 1533 1532 1531 1530 1529 1527 1526 1525 1524 1523 1523 1522
1506 1508 1520 1533 1535 1532 1530 1528 1526 1526 1530 1534 1535 1537 1537 1541 1544 1542 1547 1550 1544 1549 1555 1551 1544 1531 1523 1524 1516 1512 1518 1519 1520 1523 1523 1525 1526 1527 1529 1530 1531 1533 1534 1535 1536 1536 1537 1537 1537 1538 1538 1538 1538 1538 1538 1538 1538 1538 1538 1538 1538 1538 1538 1538 1537 1537 1536 1536 1535 1534 1534 1533 1532 1531 1530 1530 1529 1528 1527 1526 1525 1524 1523 1522 1521 1520
1504 1507 1518 1532 1533 1529 1527 1528 1529 1527 1526 1527 1527 1529 1530 1534 1541 1539 1544 1553 1550 1547 1552 1552 1542 1525 1518 1520 1518 1516 1518 1518 1520 1521 1521 1523 1525 1526 1529 1529 1531 1533 1533 1535 1535 1536 1537 1536 1537 1537 1537 1538 1537 1537 1537 1537 1537 1537 1537 1537 1536 1536 1536 1536 1535 1535 1534 1534 1533 1532 1532 1531 1530 1529 1528 1528 1526 1526 1525 1524 1523 1522 1521 1520 1520 1519
1501 1508 1519 1529 1529 1528 1530 1531 1532 1530 1528 1527 1525 1527 1528 1528 1529 1529 1533 1545 1553 1556 1558 1557 1547 1526 1516 1521 1520 1518 1519 1518 1519 1521 1521 1522 1524 1526 1528 1529 1531 1532 1533 1534 1534 1535 1536 1535 1536 1536 1536 1536 1536 1536 1536 1535 1535 1535 1535 1535 1535 1534 1534 1534 1534 1533 1532 1532 1531 1530 1529 1529 1528 1527 1526 1525 1524 1523 1522 1521 1521 1520 1519 1518 1518 1517
1499 1503 1514 1526 1529 1529 1529 1529 1531 1531 1529 1528 1526 1527 1528 1526 1524 1525 1530 1536 1544 1550 1552 1555 1548 1525 1515 1521 1520 1517 1519 1518 1518 1520 1521 1522 1523 1525 1527 1528 1530 1531 1532 1533 1533 1533 1534 1534 1534 1535 1534 1535 1535 1534 1534 1534 1533 1534 1533 1533 1533 1533 1533 1533 1532 1532 1531 1531 1530 1529 1528 1527 1527 1526 1525 1524 1523 1522 1521 1520 1519 1518 1517 1516 1515 1515
1495 1498 1507 1522 1530 1530 1531 1531 1530 1529 1529 1525 1524 1526 1526 1525 1528 1532 1535 1537 1537 1540 1540 1541 1537 1522 1515 1520 1519 1516 1517 1516 1517 1520 1520 1522 1523 1524 1526 1528 1529 1530 1530 1531 1531 1532 1532 1532 1533 1533 1533 1533 1533 1533 1533 1532 1532 1532 1532 1532 1532 1532 1532 1531 1531 1530 1530 1529 1528 1528 1527 1526 1525 1524 1523 1523 1522 1521 1520 1519 1518 1517 1515 1514 1514 1513
1491 1496 1499 1509 1519 1522 1523 1523 1517 1516 1522 1523 1522 1524 1524 1525 1527 1526 1532 1536 1533 1537 1538 1529 1523 1519 1517 1517 1516 1516 1517 1516 1518 1520 1520 1522 1523 1523 1526 1527 1528 1528 1528 1529 1530 1530 1531 1531 1531 1531 1532 1532 1532 1532 1532 1531 1531 1531 1531 1531 1531 1531 1530 1530 1530 1529 1528 1528 1527 1526 1526 1525 1524 1523 1522 1521 1520 1520 1519 1517 1516 1515 1514 1513 1511 1510
1491 1495 1494 1494 1498 1500 1500 1501 1500 1502 1511 1517 1519 1521 1522 1525 1524 1523 1530 1531 1528 1537 1540 1525 1517 1518 1516 1515 1516 1515 1516 1516 1518 1519 1520 1521 1522 1523 1524 1525 1526 1527 1527 1528 1528 1529 1529 1529 1529 1530 1530 1530 1530 1531 1530 1529 1529 1530 1530 1530 1530 1530 1529 1529 1528 1528 1527 1526 1526 1525 1524 1523 1522 1521 1521 1520 1519 1518 1517 1516 1515 1513 1512 1511 1509 1508
1489 1492 1493 1490 1490 1492 1492 1495 1498 1499 1504 1509 1514 1519 1522 1523 1524 1524 1523 1520 1521 1531 1530 1519 1517 1518 1513 1514 1515 1514 1515 1516 1516 1516 1517 1519 1521 1523 1523 1523 1524 1525 1526 1527 1527 1527 1528 1528 1528 1528 1528 1529 1529 1528 1528 1528 1528 1529 1529 1529 1529 1528 1528 1528 1527 1526 1526 1525 1524 1524 1523 1522 1521 1520 1519 1518 1518 1517 1515 1514 1513 1511 1510 1508 1507 1505
1486 1489 1492 1492 1492 1494 1496 1497 1499 1498 1500 1506 1511 1514 1518 1522 1523 1521 1517 1515 1517 1518 1513 1511 1516 1514 1511 1512 1511 1510 1511 1511 1511 1513 1515 1517 1520 1521 1522 1522 1523 1524 1524 1525 1525 1526 1526 1526 1526 1526 1527 1527 1527 1526 1527 1527 1528 1528 1528 1528 1527 1527 1526 1526 1525 1524 1524 1523 1522 1522 1521 1520 1519 1518 1518 1517 1516 1515 1513 1512 1511 1509 1508 1506 1505 1503
1484 1486 1491 1493 1493 1495 1498 1500 1500 1499 1501 1506 1510 1511 1514 1517 1517 1514 1511 1511 1512 1509 1507 1512 1513 1508 1507 1508 1506 1507 1508 1508 1511 1514 1515 1516 1518 1519 1520 1520 1521 1522 1522 1522 1524 1524 1524 1524 1525 1525 1525 1525 1525 1526 1526 1527 1527 1527 1527 1526 1526 1525 1525 1524 1523 1522 1522 1521 1520 1520 1519 1518 1518 1517 1516 1515 1514 1512 1511 1510 1508 1507 1506 1504 1503 1501
1483 1487 1491 1492 1493 1496 1499 1501 1503 1504 1502 1503 1509 1513 1514 1515 1514 1511 1507 1509 1512 1512 1512 1516 1514 1507 1506 1506 1505 1506 1508 1509 1512 1513 1512 1514 1516 1517 1518 1518 1519 1519 1520 1522 1522 1522 1522 1523 1523 1523 1523 1523 1524 1525 1525 1525 1526 1525 1525 1524 1524 1523 1523 1522 1521 1520 1520 1519 1518 1517 1517 1516 1515 1514 1513 1512 1511 1509 1508 1507 1505 1504 1502 1501 1500 1498
1483 1488 1492 1493 1493 1495 1500 1504 1507 1508 1506 1506 1509 1512 1512 1511 1509 1506 1505 1506 1509 1509 1513 1519 1514 1504 1503 1505 1505 1505 1506 1508 1509 1509 1511 1513 1514 1515 1516 1516 1517 1518 1519 1520 1520 1520 1520 1520 1520 1521 1522 1522 1523 1523 1524 1524 1524 1523 1523 1522 1522 1521 1520 1520 1519 1519 1518 1517 1516 1515 1514 1513 1512 1511 1510 1509 1508 1506 1505 1504 1502 1500 1499 1497 1496 1494
1483 1484 1488 1492 1491 1495 1507 1511 1506 1507 1510 1507 1500 1498 1501 1503 1501 1502 1505 1505 1503 1504 1509 1512 1503 1494 1498 1502 1502 1503 1505 1505 1505 1506 1509 1510 1511 1513 1513 1514 1515 1516 1516 1516 1516 1517 1518 1518 1519 1520 1521 1521 1522 1522 1522 1522 1522 1522 1521 1520 1520 1519 1519 1518 1517 1517 1516 1515 1514 1513 1512 1511 1510 1509 1507 1506 1505 1503 1502 1500 1499 1497 1495 1493 1492 1490
1482 1481 1486 1490 1487 1497 1515 1512 1504 1508 1507 1494 1484 1484 1489 1494 1495 1500 1501 1497 1497 1498 1497 1496 1493 1493 1498 1499 1498 1500 1501 1500 1501 1503 1506 1507 1508 1510 1511 1512 1512 1512 1513 1514 1514 1516 1517 1517 1519 1519 1520 1521 1521 1521 1521 1521 1520 1520 1519 1519 1518 1518 1517 1517 1516 1515 1514 1513 1512 1511 1509 1508 1507 1506 1505 1503 1502 1500 1499 1497 1496 1494 1492 1490 1488 1487
1481 1481 1487 1489 1487 1501 1514 1508 1503 1506 1495 1481 1480 1482 1483 1486 1490 1494 1492 1489 1493 1495 1493 1492 1492 1493 1495 1494 1495 1497 1496 1498 1500 1501 1503 1504 1505 1506 1508 1508 1509 1510 1511 1513 1514 1515 1516 1517 1518 1518 1519 1520 1520 1520 1520 1519 1519 1519 1518 1517 1517 1516 1515 1515 1514 1513 1512 1511 1510 1509 1507 1506 1504 1503 1502 1501 1499 1498 1496 1495 1493 1491 1489 1487 1485 1483
1479 1481 1485 1488 1491 1502 1510 1503 1495 1491 1483 1480 1483 1482 1482 1486 1491 1494 1493 1489 1490 1492 1493 1491 1488 1489 1492 1493 1494 1495 1496 1498 1499 1499 1500 1501 1502 1504 1505 1506 1508 1509 1511 1512 1513 1514 1515 1516 1517 1517 1518 1518 1518 1518 1518 1518 1518 1517 1516 1516 1515 1514 1514 1512 1512 1511 1510 1509 1508 1506 1505 1503 1501 1500 1499 1497 1496 1494 1492 1491 1489 1487 1485 1483 1481 1479
1477 1478 1480 1485 1488 1494 1502 1500 1490 1485 1482 1478 1477 1476 1477 1480 1483 1488 1488 1483 1480 1483 1486 1485 1483 1486 1491 1492 1493 1495 1496 1497 1498 1498 1498 1499 1500 1502 1504 1505 1507 1508 1510 1512 1512 1513 1514 1515 1515 1516 1516 1516 1517 1516 1516 1516 1516 1515 1515 1514 1513 1512 1511 1510 1509 1508 1507 1507 1505 1504 1502 1500 1499 1497 1496 1494 1492 1491 1489 1487 1486 1484 1482 1480 1478 1476
1476 1475 1477 1482 1483 1485 1494 1497 1494 1492 1484 1472 1468 1470 1471 1472 1474 1478 1482 1478 1472 1474 1477 1478 1480 1484 1488 1491 1492 1493 1495 1497 1497 1495 1496 1498 1499 1500 1502 1504 1506 1507 1509 1510 1511 1512 1513 1513 1514 1515 1515 1515 1515 1515 1515 1514 1514 1513 1513 1512 1511 1510 1509 1508 1507 1506 1505 1504 1503 1502 1500 1498 1496 1495 1493 1492 1490 1488 1486 1485 1483 1481 1479 1477 1475 1472
1477 1477 1477 1482 1484 1485 1488 1489 1489 1486 1475 1465 1465 1468 1469 1471 1472 1478 1486 1480 1468 1467 1473 1474 1477 1481 1483 1485 1488 1490 1494 1496 1492 1490 1493 1495 1497 1499 1501 1503 1504 1506 1508 1509 1510 1511 1512 1513 1513 1514 1514 1514 1513 1513 1513 1512 1512 1511 1510 1509 1508 1507 1506 1506 1505 1504 1503 1502 1501 1499 1498 1496 1494 1492 1490 1489 1487 1485 1483 1482 1480 1478 1476 1474 1472 1469
1479 1479 1480 1483 1484 1484 1485 1484 1481 1476 1468 1464 1466 1467 1468 1469 1471 1481 1489 1478 1463 1464 1469 1469 1472 1475 1476 1479 1483 1486 1488 1487 1484 1486 1490 1493 1495 1498 1500 1502 1503 1505 1506 1507 1509 1510 1511 1512 1512 1512 1512 1511 1511 1511 1510 1510 1510 1509 1508 1508 1506 1505 1504 1503 1502 1501 1500 1499 1498 1497 1495 1494 1492 1490 1488 1486 1484 1482 1480 1478 1476 1474 1472 1470 1468 1465
1478 1479 1480 1480 1480 1480 1481 1481 1477 1471 1464 1464 1466 1466 1468 1470 1474 1479 1477 1466 1460 1463 1463 1463 1467 1469 1470 1475 1479 1479 1480 1480 1481 1484 1488 1491 1494 1496 1499 1501 1502 1504 1505 1506 1507 1508 1509 1509 1509 1509 1509 1509 1509 1509 1508 1508 1507 1507 1506 1505 1504 1503 1502 1500 1499 1499 1497 1496 1495 1494 1492 1491 1489 1487 1485 1483 1481 1478 1477 1475 1473 1470 1468 1466 1463 1461
1472 1476 1477 1477 1478 1478 1477 1477 1477 1469 1461 1461 1465 1467 1468 1470 1472 1469 1462 1459 1461 1462 1461 1463 1465 1466 1468 1472 1473 1475 1478 1480 1482 1484 1486 1490 1493 1495 1498 1500 1501 1502 1504 1505 1505 1506 1507 1507 1507 1507 1507 1507 1507 1507 1506 1506 1505 1504 1503 1502 1501 1500 1498 1497 1496 1495 1494 1493 1491 1490 1489 1487 1486 1484 1482 1480 1477 1475 1473 1472 1470 1468 1465 1462 1459 1457
1462 1468 1473 1472 1472 1475 1477 1477 1475 1466 1458 1458 1463 1467 1468 1465 1462 1458 1457 1460 1461 1460 1462 1464 1464 1465 1468 1470 1472 1476 1478 1480 1482 1484 1486 1490 1492 1494 1497 1498 1499 1501 1501 1502 1503 1504 1504 1505 1505 1505 1506 1505 1505 1504 1503 1502 1501 1501 1500 1499 1498 1496 1495 1493 1492 1491 1490 1489 1487 1486 1485 1483 1482 1481 1479 1477 1475 1472 1470 1468 1466 1464 1461 1459 1455 1453
1456 1460 1464 1462 1462 1466 1470 1469 1462 1456 1455 1456 1457 1459 1461 1459 1456 1456 1458 1459 1459 1460 1462 1463 1463 1466 1467 1468 1471 1475 1476 1479 1482 1483 1486 1489 1491 1493 1495 1496 1497 1498 1499 1500 1501 1502 1502 1503 1503 1504 1504 1503 1502 1501 1500 1499 1498 1497 1497 1496 1494 1493 1491 1490 1489 1487 1486 1485 1484 1483 1481 1480 1479 1477 1475 1473 1471 1468 1466 1464 1462 1459 1457 1454 1452 1448
1450 1451 1453 1453 1453 1455 1456 1455 1452 1451 1453 1454 1452 1453 1455 1455 1456 1457 1458 1457 1459 1460 1461 1462 1463 1465 1466 1468 1471 1473 1476 1479 1481 1483 1486 1488 1489 1491 1493 1494 1496 1496 1497 1499 1499 1500 1501 1501 1501 1502 1502 1501 1500 1498 1497 1496 1495 1494 1493 1493 1491 1490 1488 1486 1485 1484 1483 1481 1480 1479 1478 1476 1475 1473 1472 1470 1467 1464 1462 1460 1457 1455 1453 1450 1448 1444
1448 1448 1449 1449 1450 1452 1451 1451 1451 1452 1451 1452 1452 1453 1453 1454 1456 1457 1457 1458 1459 1459 1461 1463 1463 1464 1466 1468 1470 1472 1476 1478 1480 1483 1485 1486 1488 1490 1491 1493 1494 1495 1496 1497 1498 1498 1499 1499 1499 1499 1498 1498 1497 1496 1495 1494 1492 1491 1490 1489 1488 1486 1485 1483 1481 1480 1479 1478 1476 1475 1473 1472 1470 1469 1467 1465 1463 1460 1458 1455 1452 1450 1447 1445 1443 1440
1449 1449 1449 1449 1450 1451 1450 1450 1451 1451 1451 1452 1452 1453 1453 1454 1455 1456 1457 1458 1459 1459 1461 1462 1463 1464 1467 1468 1469 1472 1475 1477 1479 1482 1484 1485 1487 1489 1490 1491 1493 1493 1494 1495 1495 1496 1495 1495 1495 1495 1494 1495 1494 1494 1493 1492 1490 1489 1487 1486 1484 1483 1481 1480 1478 1477 1475 1474 1472 1471 1469 1467 1465 1463 1461 1460 1458 1456 1453 1451 1448 1445 1442 1440 1438 1435
1447 1448 1450 1451 1450 1450 1450 1451 1451 1451 1451 1451 1452 1452 1453 1454 1454 1455 1457 1457 1458 1459 1461 1462 1464 1465 1467 1469 1470 1472 1474 1477 1479 1480 1482 1484 1486 1487 1489 1490 1491 1492 1493 1493 1492 1492 1492 1491 1491 1491 1491 1491 1491 1490 1490 1489 1488 1486 1485 1483 1481 1479 1477 1476 1475 1473 1471 1469 1467 1466 1464 1462 1460 1457 1455 1453 1451 1449 1447 1445 1443 1440 1438 1436 1433 1429
1445 1446 1448 1448 1449 1451 1451 1451 1452 1452 1451 1451 1451 1451 1452 1452 1453 1454 1455 1456 1457 1458 1460 1462 1464 1466 1467 1469 1471 1471 1473 1476 1478 1480 1482 1483 1484 1486 1487 1488 1489 1489 1489 1489 1489 1489 1488 1488 1488 1488 1487 1487 1487 1487 1486 1485 1485 1483 1481 1479 1477 1475 1473 1472 1470 1469 1467 1465 1463 1461 1458 1456 1454 1452 1449 1447 1444 1443 1441 1439 1437 1434 1431 1431 1429 1424
1443 1444 1445 1448 1450 1449 1446 1446 1447 1448 1447 1447 1447 1447 1449 1450 1452 1453 1454 1455 1456 1457 1458 1460 1463 1465 1467 1469 1470 1471 1473 1474 1476 1478 1480 1481 1483 1484 1485 1485 1486 1486 1486 1486 1486 1486 1485 1485 1485 1484 1484 1484 1483 1483 1482 1482 1481 1480 1478 1476 1474 1471 1469 1467 1465 1463 1462 1459 1458 1455 1453 1451 1448 1446 1443 1440 1438 1435 1433 1433 1431 1428 1424 1423 1422 1420
1439 1439 1440 1443 1444 1442 1439 1439 1441 1442 1442 1442 1443 1445 1447 1448 1450 1451 1452 1453 1455 1456 1457 1458 1460 1463 1465 1467 1468 1470 1472 1473 1475 1477 1478 1479 1481 1481 1482 1483 1483 1483 1484 1484 1483 1483 1483 1482 1482 1482 1481 1481 1480 1480 1479 1478 1477 1476 1474 1472 1470 1468 1465 1463 1460 1458 1456 1454 1452 1450 1448 1445 1443 1440 1438 1435 1432 1429 1425 1423 1423 1422 1419 1416 1414 1413